GW4712 Weather Reports


time (UTC)temp
C
wind
direction
speed
KPH
gust
KPH
rain 1hr
cm
rain 24hr
cm
rain mn
cm
humidity
%
barometer
mb
20260902021745 23 215 0.0 0.0 0.00 0.00 0.00 99 1018.6
20260902021244 23 215 0.0 0.0 0.00 0.00 0.00 99 1018.7
20260902020741 23 215 0.0 0.0 0.00 0.00 0.00 99 1018.5
20260902020237 23 215 0.0 0.0 0.00 0.00 0.00 99 1018.5
20260902015732 23 215 0.0 0.0 0.00 0.00 0.00 99 1018.6
20260902015228 23 215 0.0 0.0 0.00 0.00 0.00 99 1018.7
20260902014723 23 215 0.0 0.0 0.00 0.00 0.00 99 1018.6
20260902014220 23 215 0.0 0.0 0.00 0.00 0.00 99 1018.4
20260902013718 23 215 0.0 0.0 0.00 0.00 0.00 99 1018.5
20260902013214 23 215 0.0 0.0 0.00 0.00 0.00 99 1018.3
20260902012709 23 215 0.0 0.0 0.00 0.00 0.00 99 1018.6
20260902012205 23 215 0.0 0.0 0.00 0.00 0.00 99 1018.6
20260902011700 23 215 0.0 0.0 0.00 0.00 0.00 99 1018.4
20260902011154 23 215 0.0 0.0 0.00 0.00 0.00 99 1018.5
20260902010654 23 215 0.0 0.0 0.00 0.00 0.00 99 1018.4
20260902010150 23 215 0.0 0.0 0.00 0.00 0.00 99 1018.5
20260902005648 24 215 0.0 0.0 0.00 0.00 0.00 99 1018.4
20260902005143 24 215 0.0 0.0 0.00 0.00 0.00 99 1018.3
20260902004643 24 215 0.0 0.0 0.00 0.00 0.00 99 1018.4
20260902004138 24 215 0.0 0.0 0.00 0.00 0.00 99 1018.4
20260902003634 24 215 0.0 0.0 0.00 0.00 0.00 99 1018.3
20260902003129 25 215 0.0 0.0 0.00 0.00 0.00 99 1018.4
20260902002624 25 215 0.0 0.0 0.00 0.00 0.00 99 1018.3
20260902002119 25 215 0.0 0.0 0.00 0.00 0.00 98 1018.3
20260902001614 25 215 0.0 0.0 0.00 0.00 0.00 98 1018.3
20260902001109 25 215 0.0 0.0 0.00 0.00 0.00 98 1018.3
20260902000605 25 215 0.0 0.0 0.00 0.00 0.00 98 1018.2
20260902000100 25 215 0.0 0.0 0.00 0.00 0.00 98 1018.3
20260901235559 25 215 0.0 0.0 0.00 0.00 0.00 97 1018.2
20260901235055 26 215 0.0 0.0 0.00 0.00 0.00 97 1018.1
20260901234553 26 215 0.0 0.0 0.00 0.00 0.00 96 1018.2
20260901234049 26 215 0.0 0.0 0.00 0.00 0.00 95 1018.3
20260901233548 26 215 0.0 0.0 0.00 0.00 0.00 95 1018.4
20260901233044 26 215 0.0 0.0 0.00 0.00 0.00 95 1018.2
20260901232539 26 215 0.0 0.0 0.00 0.00 0.00 94 1018.4
20260901232034 27 215 0.0 0.0 0.00 0.00 0.00 94 1018.5
20260901231531 27 215 0.0 0.0 0.00 0.00 0.00 93 1018.5
20260901231027 27 215 0.0 0.0 0.00 0.00 0.00 92 1018.5
20260901230522 27 215 0.0 0.0 0.00 0.00 0.00 91 1018.4
20260901230017 28 215 0.0 0.0 0.00 0.00 0.00 90 1018.4
20260901225512 28 215 0.0 0.0 0.00 0.00 0.00 90 1018.4
20260901225012 28 215 0.0 0.0 0.00 0.00 0.00 90 1018.4
20260901224508 28 215 0.0 0.0 0.00 0.00 0.00 88 1018.3
20260901224004 29 215 0.0 0.0 0.00 0.00 0.00 85 1018.3
20260901223500 30 215 0.0 0.0 0.00 0.00 0.00 84 1018.2
20260901222955 30 215 0.0 0.0 0.00 0.00 0.00 83 1018.5
20260901222451 30 216 0.0 0.0 0.00 0.00 0.00 81 1018.4
20260901221947 30 216 0.0 0.0 0.00 0.00 0.00 81 1018.0
20260901221443 30 216 0.0 0.0 0.00 0.00 0.00 83 1018.3
20260901220942 31 252 0.0 0.0 0.00 0.00 0.00 78 1018.2
20260901220442 31 252 0.0 0.0 0.00 0.00 0.00 77 1018.0
20260901215940 31 253 0.0 0.0 0.00 0.00 0.00 77 1017.9
20260901215439 31 253 0.0 0.0 0.00 0.00 0.00 75 1017.7
20260901214933 30 252 0.0 0.0 0.00 0.00 0.00 80 1017.8
20260901214431 30 253 0.0 0.0 0.00 0.00 0.00 82 1017.8
20260901213926 29 252 0.0 0.0 0.00 0.00 0.00 84 1017.5
20260901213421 29 252 0.0 0.0 0.00 0.00 0.00 87 1017.5
20260901212920 29 252 0.0 0.0 0.00 0.00 0.00 85 1017.7
20260901212416 29 252 0.0 0.0 0.00 0.00 0.00 87 1017.9
20260901211913 29 253 0.0 0.0 0.00 0.00 0.00 86 1017.7
20260901211408 29 253 0.0 0.0 0.00 0.00 0.00 85 1017.7
20260901210903 29 253 0.0 0.0 0.00 0.00 0.00 84 1017.7
20260901210358 29 253 0.0 0.0 0.00 0.00 0.00 83 1017.8
20260901205854 28 253 0.0 0.0 0.00 0.00 0.00 83 1017.8
20260901205349 28 253 0.0 0.0 0.00 0.00 0.00 84 1018.0
20260901204844 28 254 0.0 0.0 0.00 0.00 0.00 83 1017.9
20260901204341 29 253 0.0 0.0 0.00 0.00 0.00 84 1018.1
20260901203841 29 253 0.0 0.0 0.00 0.00 0.00 83 1018.1
20260901203335 29 253 0.0 0.0 0.00 0.00 0.00 84 1018.4
20260901202830 30 254 0.0 0.0 0.00 0.00 0.00 82 1018.3
20260901202325 30 254 0.0 0.0 0.00 0.00 0.00 78 1018.3
20260901201821 30 211 0.0 0.0 0.00 0.00 0.00 79 1018.3
20260901201320 30 265 0.0 0.0 0.00 0.00 0.00 75 1018.2
20260901200820 30 229 0.0 0.0 0.00 0.00 0.00 76 1018.7
20260901200315 30 249 0.0 0.0 0.00 0.00 0.00 74 1018.7
20260901195814 30 297 0.0 0.0 0.00 0.00 0.00 74 1018.6
20260901195307 30 7 0.0 0.0 0.00 0.00 0.00 75 1018.7
20260901194802 30 252 0.0 0.0 0.00 0.00 0.00 75 1019.1
20260901194257 30 339 0.0 0.0 0.00 0.00 0.00 76 1019.3
20260901193754 30 282 0.0 0.0 0.00 0.00 0.00 75 1019.5
20260901193252 30 248 0.0 0.0 0.00 0.00 0.00 75 1019.6
20260901192747 30 283 0.0 0.0 0.00 0.00 0.00 77 1019.5
20260901192243 30 269 0.0 0.0 0.00 0.00 0.00 75 1019.2
20260901191739 30 269 0.0 0.0 0.00 0.00 0.00 77 1019.2
20260901191235 30 270 0.0 0.0 0.00 0.00 0.00 77 1019.2
20260901190730 29 240 0.0 0.0 0.00 0.00 0.00 76 1019.4
20260901190229 29 240 0.0 0.0 0.00 0.00 0.00 81 1019.2
20260901185728 30 240 0.0 0.0 0.00 0.00 0.00 75 1019.1
20260901185227 30 240 0.0 0.0 0.00 0.00 0.00 76 1018.8
20260901184723 30 237 0.0 1.6 0.00 0.00 0.00 73 1018.8
20260901184218 30 245 0.0 0.0 0.00 0.00 0.00 77 1018.8
20260901183713 30 245 0.0 0.0 0.00 0.00 0.00 75 1018.9
20260901183213 30 261 0.0 0.0 0.00 0.00 0.00 77 1019.1
20260901182704 30 232 0.0 0.0 0.00 0.00 0.00 74 1019.3
20260901182202 30 261 0.0 0.0 0.00 0.00 0.00 72 1019.5
20260901181657 30 249 0.0 0.0 0.00 0.00 0.00 75 1019.5
20260901181151 30 243 0.0 0.0 0.00 0.00 0.00 73 1019.8
20260901180645 30 297 0.0 0.0 0.00 0.00 0.00 74 1020.1
20260901180140 30 286 0.0 0.0 0.00 0.00 0.00 70 1020.0
20260901175639 30 260 0.0 0.0 0.00 0.00 0.00 71 1020.4
20260901175138 30 297 0.0 0.0 0.00 0.00 0.00 72 1020.1
20260901174634 31 252 0.0 0.0 0.00 0.00 0.00 70 1020.3
20260901174130 31 310 0.0 1.6 0.00 0.00 0.00 71 1020.5
20260901173626 31 299 0.0 0.0 0.00 0.00 0.00 69 1020.4
20260901173121 31 300 0.0 0.0 0.00 0.00 0.00 72 1020.5
20260901172617 30 249 0.0 1.6 0.00 0.00 0.00 72 1020.4
20260901172114 30 250 0.0 1.6 0.00 0.00 0.00 71 1020.6
20260901171614 31 308 0.0 0.0 0.00 0.00 0.00 72 1020.5
20260901171108 31 294 0.0 0.0 0.00 0.00 0.00 72 1020.6
20260901170606 31 254 0.0 0.0 0.00 0.00 0.00 72 1020.6
20260901165601 30 250 0.0 1.6 0.00 0.00 0.00 73 1020.4
20260901165056 30 289 0.0 0.0 0.00 0.00 0.00 74 1020.3
20260901164552 30 246 0.0 1.6 0.00 0.00 0.00 73 1020.4
20260901164047 30 225 0.0 0.0 0.00 0.00 0.00 74 1020.4
20260901163543 30 298 0.0 1.6 0.00 0.00 0.00 74 1020.4
20260901163042 30 249 0.0 3.2 0.00 0.00 0.00 74 1020.4
20260901162537 30 299 0.0 11.3 0.00 0.00 0.00 74 1020.2
20260901162036 30 305 0.0 1.6 0.00 0.00 0.00 76 1020.2
20260901161536 30 236 0.0 12.9 0.00 0.00 0.00 74 1020.2
20260901161035 30 306 0.0 0.0 0.00 0.00 0.00 76 1020.2
20260901160532 29 293 0.0 0.0 0.00 0.00 0.00 79 1020.2
20260901160027 29 244 0.0 1.6 0.00 0.00 0.00 78 1020.2
20260901155526 29 307 0.0 0.0 0.00 0.00 0.00 76 1020.2
20260901155022 29 287 0.0 0.0 0.00 0.00 0.00 80 1019.9
20260901154521 29 285 0.0 0.0 0.00 0.00 0.00 78 1020.0
20260901154016 28 246 0.0 0.0 0.00 0.00 0.00 80 1020.2
20260901153511 28 283 0.0 0.0 0.00 0.00 0.00 84 1020.1
20260901153010 28 288 0.0 0.0 0.00 0.00 0.00 82 1020.2
20260901152505 28 310 0.0 0.0 0.00 0.00 0.00 82 1020.1
20260901152004 28 256 0.0 0.0 0.00 0.00 0.00 82 1020.0
20260901151500 28 287 0.0 0.0 0.00 0.00 0.00 83 1019.9
20260901150959 28 296 0.0 0.0 0.00 0.00 0.00 80 1019.8
20260901150457 28 311 0.0 0.0 0.00 0.00 0.00 82 1020.1
20260901145955 28 187 0.0 0.0 0.00 0.00 0.00 82 1019.9
20260901145449 27 253 0.0 0.0 0.00 0.00 0.00 82 1019.9
20260901144949 27 180 0.0 0.0 0.00 0.00 0.00 84 1019.9
20260901144444 27 247 0.0 0.0 0.00 0.00 0.00 86 1020.0
20260901143940 27 301 0.0 0.0 0.00 0.00 0.00 83 1019.9
20260901143436 27 173 0.0 0.0 0.00 0.00 0.00 84 1020.1
20260901142932 27 176 0.0 0.0 0.00 0.00 0.00 85 1020.0
20260901142432 27 133 0.0 0.0 0.00 0.00 0.00 87 1020.2
20260901141926 27 133 0.0 0.0 0.00 0.00 0.00 87 1020.0
20260901141421 26 133 0.0 0.0 0.00 0.00 0.00 92 1020.1
20260901140921 26 134 0.0 0.0 0.00 0.00 0.00 91 1020.4
20260901140419 26 133 0.0 0.0 0.00 0.00 0.00 90 1020.3
20260901135914 26 134 0.0 0.0 0.00 0.00 0.00 92 1020.3
20260901135409 26 134 0.0 0.0 0.00 0.00 0.00 91 1020.2
20260901134905 26 134 0.0 0.0 0.00 0.00 0.00 91 1020.3
20260901134400 25 133 0.0 0.0 0.00 0.00 0.00 93 1020.4
20260901133854 25 133 0.0 0.0 0.00 0.00 0.00 94 1020.6
20260901133354 25 133 0.0 0.0 0.00 0.00 0.00 94 1020.7
20260901132852 25 134 0.0 0.0 0.00 0.00 0.00 95 1020.6
20260901132348 24 134 0.0 0.0 0.00 0.00 0.00 97 1020.7
20260901131847 24 134 0.0 0.0 0.00 0.00 0.00 98 1020.6
20260901131346 24 133 0.0 0.0 0.00 0.00 0.00 98 1020.6
20260901130841 23 133 0.0 0.0 0.00 0.00 0.00 99 1020.7
20260901130336 23 133 0.0 0.0 0.00 0.00 0.00 99 1020.8
20260901125834 23 134 0.0 0.0 0.00 0.00 0.00 98 1020.7
20260901125328 23 133 0.0 0.0 0.00 0.00 0.00 99 1020.7
20260901124823 22 133 0.0 0.0 0.00 0.00 0.00 99 1020.9
20260901124318 22 133 0.0 0.0 0.00 0.00 0.00 99 1020.9
20260901123817 21 133 0.0 0.0 0.00 0.00 0.00 99 1020.8
20260901123313 22 133 0.0 0.0 0.00 0.00 0.00 99 1020.7
20260901122812 21 134 0.0 0.0 0.00 0.00 0.00 99 1020.8
20260901122312 21 134 0.0 0.0 0.00 0.00 0.00 99 1020.5
20260901121811 21 134 0.0 0.0 0.00 0.00 0.00 99 1020.6
20260901121306 20 134 0.0 0.0 0.00 0.00 0.00 99 1020.6
20260901120801 20 134 0.0 0.0 0.00 0.00 0.00 99 1020.6
20260901120300 20 134 0.0 0.0 0.00 0.00 0.00 99 1020.6
20260901115756 20 134 0.0 0.0 0.00 0.00 0.00 99 1020.6
20260901115252 20 134 0.0 0.0 0.00 0.00 0.00 99 1020.3
20260901114749 20 134 0.0 0.0 0.00 0.00 0.00 99 1020.4
20260901114244 20 134 0.0 0.0 0.00 0.00 0.00 99 1020.3
20260901113742 20 134 0.0 0.0 0.00 0.00 0.00 99 1020.2
20260901113237 20 134 0.0 0.0 0.00 0.00 0.00 99 1020.3
20260901112732 20 134 0.0 0.0 0.00 0.00 0.00 99 1020.0
20260901112231 20 134 0.0 0.0 0.00 0.00 0.00 99 1020.0
20260901111726 20 134 0.0 0.0 0.00 0.00 0.00 99 1020.1
20260901111226 20 134 0.0 0.0 0.00 0.00 0.00 99 1020.1
20260901110719 20 134 0.0 0.0 0.00 0.00 0.00 99 1019.9
20260901110214 20 134 0.0 0.0 0.00 0.00 0.00 99 1019.9
20260901105711 20 134 0.0 0.0 0.00 0.00 0.00 99 1020.0
20260901105211 20 134 0.0 0.0 0.00 0.00 0.00 99 1019.8
20260901104707 20 134 0.0 0.0 0.00 0.00 0.00 99 1019.9
20260901104202 20 134 0.0 0.0 0.00 0.00 0.00 99 1019.9
20260901103701 20 134 0.0 0.0 0.00 0.00 0.00 99 1019.6
20260901103157 20 134 0.0 0.0 0.00 0.00 0.00 99 1019.7
20260901102652 20 134 0.0 0.0 0.00 0.00 0.00 99 1019.5
20260901102151 20 134 0.0 0.0 0.00 0.00 0.00 99 1019.7
20260901101648 20 134 0.0 0.0 0.00 0.00 0.00 99 1019.7
20260901101146 20 134 0.0 0.0 0.00 0.00 0.00 99 1019.6
20260901100640 20 134 0.0 0.0 0.00 0.00 0.00 99 1019.7
20260901100136 20 134 0.0 0.0 0.00 0.00 0.00 99 1019.6
20260901095633 20 134 0.0 0.0 0.00 0.00 0.00 99 1019.8
20260901095131 20 134 0.0 0.0 0.00 0.00 0.00 99 1019.5
20260901094626 20 134 0.0 0.0 0.00 0.00 0.00 99 1019.4
20260901094121 20 134 0.0 0.0 0.00 0.00 0.00 99 1019.4
20260901093616 20 134 0.0 0.0 0.00 0.00 0.00 99 1019.6
20260901093115 20 134 0.0 0.0 0.00 0.00 0.00 99 1019.7
20260901092612 20 134 0.0 0.0 0.00 0.00 0.00 99 1019.3
20260901092108 20 134 0.0 0.0 0.00 0.00 0.00 99 1019.3
20260901091603 20 134 0.0 0.0 0.00 0.00 0.00 99 1019.3
20260901091057 20 134 0.0 0.0 0.00 0.00 0.00 99 1019.2
20260901090556 20 134 0.0 0.0 0.00 0.00 0.00 99 1019.5
20260901090052 20 134 0.0 0.0 0.00 0.00 0.00 99 1019.3
20260901085548 20 134 0.0 0.0 0.00 0.00 0.00 99 1019.5
20260901085044 20 134 0.0 0.0 0.00 0.00 0.00 99 1019.3
20260901084540 20 134 0.0 0.0 0.00 0.00 0.00 99 1019.2
20260901084030 20 134 0.0 0.0 0.00 0.00 0.00 99 1019.4
20260901083524 20 134 0.0 0.0 0.00 0.00 0.00 99 1019.4
20260901083022 20 134 0.0 0.0 0.00 0.00 0.00 99 1019.4
20260901082517 20 134 0.0 0.0 0.00 0.00 0.00 99 1019.2
20260901082013 20 134 0.0 0.0 0.00 0.00 0.00 99 1019.5
20260901081507 20 134 0.0 0.0 0.00 0.00 0.00 99 1019.5
20260901081002 20 134 0.0 0.0 0.00 0.00 0.00 99 1019.4
20260901080501 20 134 0.0 0.0 0.00 0.00 0.00 99 1019.6
20260901075955 20 134 0.0 0.0 0.00 0.00 0.00 99 1019.4
20260901075452 20 134 0.0 0.0 0.00 0.00 0.00 99 1019.3
20260901074951 20 134 0.0 0.0 0.00 0.00 0.00 99 1019.2
20260901074450 20 134 0.0 0.0 0.00 0.00 0.00 99 1019.3
20260901073941 20 134 0.0 0.0 0.00 0.00 0.00 99 1019.3
20260901073437 20 134 0.0 0.0 0.00 0.00 0.00 99 1019.4
20260901072937 20 134 0.0 0.0 0.00 0.00 0.00 99 1019.4
20260901072432 20 134 0.0 0.0 0.00 0.00 0.00 99 1019.4
20260901071927 20 134 0.0 0.0 0.00 0.00 0.00 99 1019.4
20260901071425 20 134 0.0 0.0 0.00 0.00 0.00 99 1019.4
20260901070920 20 134 0.0 0.0 0.00 0.00 0.00 99 1019.5
20260901070415 20 134 0.0 0.0 0.00 0.00 0.00 99 1019.6
20260901065914 20 134 0.0 0.0 0.00 0.00 0.00 99 1019.5
20260901065409 20 134 0.0 0.0 0.00 0.00 0.00 99 1019.5
20260901064905 20 134 0.0 0.0 0.00 0.00 0.00 99 1019.5
20260901064401 20 134 0.0 0.0 0.00 0.00 0.00 99 1019.4
20260901063858 20 134 0.0 0.0 0.00 0.00 0.00 99 1019.5
20260901063354 20 134 0.0 0.0 0.00 0.00 0.00 99 1019.4
20260901062850 20 134 0.0 0.0 0.00 0.00 0.00 99 1019.4
20260901062346 21 134 0.0 0.0 0.00 0.00 0.00 99 1019.4
20260901061841 21 134 0.0 0.0 0.00 0.00 0.00 99 1019.5
20260901061336 21 134 0.0 0.0 0.00 0.00 0.00 99 1019.7
20260901060831 21 134 0.0 0.0 0.00 0.00 0.00 99 1019.5
20260901060327 21 134 0.0 0.0 0.00 0.00 0.00 99 1019.4
20260901055826 21 134 0.0 0.0 0.00 0.00 0.00 99 1019.4
20260901055323 21 134 0.0 0.0 0.00 0.00 0.00 99 1019.6
20260901054820 21 134 0.0 0.0 0.00 0.00 0.00 99 1019.5
20260901054317 21 134 0.0 0.0 0.00 0.00 0.00 99 1019.5
20260901053812 21 134 0.0 0.0 0.00 0.00 0.00 99 1019.4
20260901053307 21 134 0.0 0.0 0.00 0.00 0.00 99 1019.6
20260901052802 21 134 0.0 0.0 0.00 0.00 0.00 99 1019.6
20260901052258 21 134 0.0 0.0 0.00 0.00 0.00 99 1019.7
20260901051756 21 134 0.0 0.0 0.00 0.00 0.00 99 1019.6
20260901051252 21 134 0.0 0.0 0.00 0.00 0.00 99 1019.6
20260901050747 21 134 0.0 0.0 0.00 0.00 0.00 99 1019.6
20260901050242 21 134 0.0 0.0 0.00 0.00 0.00 99 1019.6
20260901045737 21 134 0.0 0.0 0.00 0.00 0.00 99 1019.4
20260901045232 21 134 0.0 0.0 0.00 0.00 0.00 99 1019.4
20260901044728 21 134 0.0 0.0 0.00 0.00 0.00 99 1019.6
20260901044224 21 134 0.0 0.0 0.00 0.00 0.00 99 1019.4
20260901043719 21 134 0.0 0.0 0.00 0.00 0.00 99 1019.4
20260901043214 21 134 0.0 0.0 0.00 0.00 0.00 99 1019.5
20260901042714 21 134 0.0 0.0 0.00 0.00 0.00 99 1019.4
20260901042209 21 134 0.0 0.0 0.00 0.00 0.00 99 1019.3
20260901041705 21 134 0.0 0.0 0.00 0.00 0.00 99 1019.5
20260901041204 21 134 0.0 0.0 0.00 0.00 0.00 99 1019.4
20260901040659 21 134 0.0 0.0 0.00 0.00 0.00 99 1019.5
20260901040158 21 134 0.0 0.0 0.00 0.00 0.00 99 1019.6
20260901035657 21 134 0.0 0.0 0.00 0.79 0.79 99 1019.5
20260901035156 21 134 0.0 0.0 0.00 0.79 0.79 99 1019.6
20260901034650 21 134 0.0 0.0 0.00 0.79 0.79 99 1019.6
20260901034144 21 134 0.0 0.0 0.00 0.79 0.79 99 1019.7
20260901033643 21 134 0.0 0.0 0.00 0.79 0.79 99 1019.7
20260901033138 21 134 0.0 0.0 0.00 0.79 0.79 99 1019.8
20260901032636 21 134 0.0 0.0 0.00 0.79 0.79 99 1020.0
20260901032131 21 134 0.0 0.0 0.00 0.79 0.79 99 1020.1
20260901031627 21 134 0.0 0.0 0.00 0.79 0.79 99 1020.0
20260901031123 21 134 0.0 0.0 0.00 0.79 0.79 99 1020.1
20260901030622 21 134 0.0 0.0 0.00 0.79 0.79 99 1020.2
20260901030117 21 134 0.0 0.0 0.00 0.79 0.79 99 1020.3
20260901025612 21 134 0.0 0.0 0.00 0.79 0.79 99 1020.1
20260901025106 21 134 0.0 0.0 0.00 0.79 0.79 99 1020.0
20260901024601 21 134 0.0 0.0 0.00 0.79 0.79 99 1020.2
20260901024100 21 134 0.0 0.0 0.00 0.79 0.79 99 1020.3
20260901023559 21 134 0.0 0.0 0.00 0.79 0.79 99 1020.2
20260901023054 21 134 0.0 0.0 0.00 0.79 0.79 99 1020.2
20260901022549 22 134 0.0 0.0 0.00 0.79 0.79 99 1020.2